This is the latest recevied weather packets stored in our database for station/object EA1CZ-10. If no packets are shown the sender has not sent any weather packets the latest 10 day(s).
| Time | Temp. | Humidity | Pressure | Rain* | Wind** | Luminosity | Snow |
|---|---|---|---|---|---|---|---|
| 1777560031 | 18.89° C | 63% | 1030.9 hPa | - | - | - | - |
| 1777558230 | 20.56° C | 62% | 1030.8 hPa | - | - | - | - |
| 1777556430 | 20.56° C | 63% | 1030.7 hPa | - | - | - | - |
| 1777554630 | 19.44° C | 63% | 1030.6 hPa | - | - | - | - |
| 1777552830 | 17.78° C | 64% | 1030.7 hPa | - | - | - | - |
| 1777551029 | 16.67° C | 65% | 1030.6 hPa | - | - | - | - |
| 1777549229 | 11.11° C | 67% | 1030.6 hPa | - | - | - | - |
| 1777547429 | 10.56° C | 68% | 1030.6 hPa | - | - | - | - |
| 1777545631 | 12.22° C | 67% | 1030.3 hPa | - | - | - | - |
| 1777543829 | 12.22° C | 67% | 1030.1 hPa | - | - | - | - |
| 1777542029 | 10.56° C | 68% | 1029.8 hPa | - | - | - | - |
| 1777540229 | 10.56° C | 68% | 1029.5 hPa | - | - | - | - |
| 1777538429 | 9.44° C | 68% | 1029.2 hPa | - | - | - | - |
| 1777534835 | 7.78° C | 68% | 1028.9 hPa | - | - | - | - |
| 1777533035 | 7.78° C | 69% | 1028.6 hPa | - | - | - | - |
| 1777531235 | 7.22° C | 69% | 1028.4 hPa | - | - | - | - |
| 1777529435 | 6.67° C | 69% | 1028.2 hPa | - | - | - | - |
| 1777527635 | 6.67° C | 69% | 1027.9 hPa | - | - | - | - |
| 1777525835 | 6.67° C | 69% | 1027.6 hPa | - | - | - | - |
| 1777524035 | 6.67° C | 68% | 1027.5 hPa | - | - | - | - |
| 1777522235 | 6.67° C | 69% | 1027.2 hPa | - | - | - | - |
| 1777520435 | 7.22° C | 68% | 1027.1 hPa | - | - | - | - |
| 1777518635 | 6.67° C | 68% | 1027 hPa | - | - | - | - |
| 1777516834 | 6.67° C | 68% | 1027 hPa | - | - | - | - |
| 1777515033 | 6.67° C | 68% | 1026.7 hPa | - | - | - | - |
* Rain since midnight (hover to see other rain measurements)
** Current wind speed in m/s (hover to see current wind gust speed)